Regional Weather Roundup
Issued by NWS

Home | Current Version | Previous Version | Text Only | Print | Product List | Glossary Off
Versions: 1 2 3 4 5 6 7 8 9 10 11 12 13 14 15 16 17 18 19 20 21 22 23 24 25 26 27 28 29 30 31 32 33 34 35 36 37 38 39 40 41 42 43 44 45 46 47 48 49 50

000
ASUS43 KLSX 061407
RWRMO

WEATHER SUMMARY FOR MISSOURI
NATIONAL WEATHER SERVICE SPRINGFIELD MO
900 AM CDT WED MAY 06 2015

NOTE: "FAIR" INDICATES FEW OR NO CLOUDS BELOW 12,000 FEET WITH NO
       SIGNIFICANT WEATHER AND/OR OBSTRUCTIONS TO VISIBILITY.
       CURRENT SKY AND/OR WEATHER CONDITIONS ARE NOT AVAILABLE FOR
       CHILLICOTHE AND FARMINGTON.

MOZ001>031-035>038-043-044-053-054-061500-
...NORTHERN AND WESTERN MISSOURI...

CITY           SKY/WX    TMP DP  RH WIND       PRES   REMARKS
KANSAS CTY INT CLOUDY    67  59  75 S16G25    29.93R
KANSAS C DTWN  CLOUDY    68  59  73 S20       29.94R
LEE`S SUMMIT   CLOUDY    66  59  78 S16G24    29.95S
ST JOSEPH      PTSUNNY   69  59  70 S20G29    29.91R
CHILLICOTHE      N/A     71  57  61 S7G20     29.98F
KIRKSVILLE     SUNNY     73  58  59 S17G24    30.05F

$$
MOZ066>068-077>081-088>096-101>105-061500-
...SOUTHWEST MISSOURI...

CITY           SKY/WX    TMP DP  RH WIND       PRES   REMARKS
SPRINGFIELD    LGT RAIN  61  57  87 SW12      30.10R
JOPLIN         LGT RAIN  62  58  86 S18G28    30.03R

$$
MOZ032>034-039>042-045>050-055>058-069>072-061500-
...CENTRAL MISSOURI...

CITY           SKY/WX    TMP DP  RH WIND       PRES   REMARKS
COLUMBIA       SUNNY     70  56  61 S17       30.07S
JEFFERSON CITY SUNNY     69  55  60 SE8       30.07S
ROLLA          SUNNY     71  56  58 S12       30.10R
SEDALIA        CLOUDY    69  57  65 S17       30.02F
WHITEMAN AFB   PTSUNNY   69  58  68 S17G24    29.98F
WARRENSBURG    CLOUDY    68  57  68 SE14G23   29.97F
OSAGE BEACH    MOSUNNY   72  55  56 S10       30.07S

$$
MOZ051-052-059>065-061500-
...EAST CENTRAL MISSOURI...

CITY           SKY/WX    TMP DP  RH WIND       PRES   REMARKS
ST LOUIS INTL  PTSUNNY   75  55  49 S8        30.14F
SPIRIT OF STL  SUNNY     73  55  53 S7        30.12F
ST CHARLES     SUNNY     75  57  53 S9        30.13S

$$
MOZ072>076-082>087-097>100-106>115-061500-
...SOUTH CENTRAL AND SOUTHEAST MISSOURI...

CITY           SKY/WX    TMP DP  RH WIND       PRES   REMARKS
CAPE GIRARDEAU SUNNY     72  59  63 S9        30.17R
FARMINGTON     SUNNY     66  57  72 S7        30.20R
POPLAR BLUFF   SUNNY     72  58  61 S5        30.14S
WEST PLAINS    SUNNY     68  55  63 S8        30.14R

$$


USA.gov is the U.S. government's official web portal to all federal, state and local government web resources and services.